Year,Month,Day,Hour,Minute,Value (Times are PST for windspeed in km/hr)
2015,11,13,00,00,2.00
2015,11,13,00,01,4.20
2015,11,13,00,02,2.70
2015,11,13,00,03,8.60
2015,11,13,00,04,8.40
2015,11,13,00,05,7.20
2015,11,13,00,06,5.30
2015,11,13,00,07,3.00
2015,11,13,00,08,3.40
2015,11,13,00,09,2.10
2015,11,13,00,10,1.10
2015,11,13,00,11,2.70
2015,11,13,00,12,2.80
2015,11,13,00,13,3.40
2015,11,13,00,14,5.90
2015,11,13,00,15,10.00
2015,11,13,00,16,7.50
2015,11,13,00,17,2.90
2015,11,13,00,18,2.40
2015,11,13,00,19,4.70
2015,11,13,00,20,4.70
2015,11,13,00,21,1.70
2015,11,13,00,22,1.40
2015,11,13,00,23,0.90
2015,11,13,00,24,5.50
2015,11,13,00,25,6.90
2015,11,13,00,26,4.60
2015,11,13,00,27,2.70
2015,11,13,00,28,2.10
2015,11,13,00,29,2.60
2015,11,13,00,30,0.90
2015,11,13,00,31,3.30
2015,11,13,00,32,4.30
2015,11,13,00,33,4.20
2015,11,13,00,34,1.90
2015,11,13,00,35,5.60
2015,11,13,00,36,4.40
2015,11,13,00,37,8.00
2015,11,13,00,38,8.40
2015,11,13,00,39,5.20
2015,11,13,00,40,5.20
2015,11,13,00,41,11.20
2015,11,13,00,42,14.10
2015,11,13,00,43,6.20
2015,11,13,00,44,7.20
2015,11,13,00,45,6.50
2015,11,13,00,46,7.00
2015,11,13,00,47,8.50
2015,11,13,00,48,3.20
2015,11,13,00,49,5.10
2015,11,13,00,50,2.20
2015,11,13,00,51,6.40
2015,11,13,00,52,4.90
2015,11,13,00,53,4.70
2015,11,13,00,54,5.90
2015,11,13,00,55,4.60
2015,11,13,00,56,6.20
2015,11,13,00,57,0.60
2015,11,13,00,58,1.00
2015,11,13,00,59,4.90
2015,11,13,01,00,1.80
2015,11,13,01,01,0.60
2015,11,13,01,02,4.90
2015,11,13,01,03,1.10
2015,11,13,01,04,2.30
2015,11,13,01,05,5.90
2015,11,13,01,06,7.90
2015,11,13,01,07,2.30
2015,11,13,01,08,3.10
2015,11,13,01,09,4.30
2015,11,13,01,10,4.10
2015,11,13,01,11,4.40
2015,11,13,01,12,10.50
2015,11,13,01,13,6.40
2015,11,13,01,14,6.80
2015,11,13,01,15,7.10
2015,11,13,01,16,3.50
2015,11,13,01,17,7.10
2015,11,13,01,18,4.00
2015,11,13,01,19,11.30
2015,11,13,01,20,5.60
2015,11,13,01,21,6.40
2015,11,13,01,22,3.60
2015,11,13,01,23,3.90
2015,11,13,01,24,4.30
2015,11,13,01,25,12.10
2015,11,13,01,26,8.40
2015,11,13,01,27,4.40
2015,11,13,01,28,5.50
2015,11,13,01,29,3.20
2015,11,13,01,30,6.20
2015,11,13,01,31,8.90
2015,11,13,01,32,9.60
2015,11,13,01,33,7.40
2015,11,13,01,34,5.40
2015,11,13,01,35,5.60
2015,11,13,01,36,6.20
2015,11,13,01,37,5.20
2015,11,13,01,38,5.70
2015,11,13,01,39,8.00
2015,11,13,01,40,8.00
2015,11,13,01,41,5.90
2015,11,13,01,42,6.40
2015,11,13,01,43,3.40
2015,11,13,01,44,4.10
2015,11,13,01,45,5.40
2015,11,13,01,46,3.00
2015,11,13,01,47,5.20
2015,11,13,01,48,5.40
2015,11,13,01,49,7.90
2015,11,13,01,50,2.10
2015,11,13,01,51,2.70
2015,11,13,01,52,4.30
2015,11,13,01,53,9.40
2015,11,13,01,54,4.40
2015,11,13,01,55,7.20
2015,11,13,01,56,8.80
2015,11,13,01,57,6.40
2015,11,13,01,58,9.30
2015,11,13,01,59,6.80
2015,11,13,02,00,7.60
2015,11,13,02,01,6.80
2015,11,13,02,02,8.50
2015,11,13,02,03,6.20
2015,11,13,02,04,8.00
2015,11,13,02,05,6.00
2015,11,13,02,06,8.10
2015,11,13,02,07,9.70
2015,11,13,02,08,4.50
2015,11,13,02,09,8.90
2015,11,13,02,10,4.70
2015,11,13,02,11,3.70
2015,11,13,02,12,1.40
2015,11,13,02,13,9.60
2015,11,13,02,14,8.90
2015,11,13,02,15,10.40
2015,11,13,02,16,9.00
2015,11,13,02,17,11.00
2015,11,13,02,18,13.00
2015,11,13,02,19,8.90
2015,11,13,02,20,5.90
2015,11,13,02,21,8.80
2015,11,13,02,22,15.20
2015,11,13,02,23,5.70
2015,11,13,02,24,4.70
2015,11,13,02,25,5.50
2015,11,13,02,26,3.40
2015,11,13,02,27,4.90
2015,11,13,02,28,0.90
2015,11,13,02,29,8.00
2015,11,13,02,30,7.40
2015,11,13,02,31,3.80
2015,11,13,02,32,1.40
2015,11,13,02,33,6.00
2015,11,13,02,34,3.10
2015,11,13,02,35,6.70
2015,11,13,02,36,14.70
2015,11,13,02,37,7.70
2015,11,13,02,38,2.30
2015,11,13,02,39,1.40
2015,11,13,02,40,3.90
2015,11,13,02,41,10.50
2015,11,13,02,42,4.90
2015,11,13,02,43,0.90
2015,11,13,02,44,4.50
2015,11,13,02,45,3.90
2015,11,13,02,46,13.00
2015,11,13,02,47,4.60
2015,11,13,02,48,12.00
2015,11,13,02,49,11.80
2015,11,13,02,50,7.50
2015,11,13,02,51,5.40
2015,11,13,02,52,6.00
2015,11,13,02,53,5.80
2015,11,13,02,54,14.80
2015,11,13,02,55,11.00
2015,11,13,02,56,5.90
2015,11,13,02,57,1.80
2015,11,13,02,58,0.50
2015,11,13,02,59,2.00
2015,11,13,03,00,3.30
2015,11,13,03,01,5.70
2015,11,13,03,02,7.30
2015,11,13,03,03,7.20
2015,11,13,03,04,3.90
2015,11,13,03,05,0.80
2015,11,13,03,06,4.00
2015,11,13,03,07,4.20
2015,11,13,03,08,6.20
2015,11,13,03,09,8.00
2015,11,13,03,10,6.90
2015,11,13,03,11,8.40
2015,11,13,03,12,6.40
2015,11,13,03,13,5.30
2015,11,13,03,14,8.90
2015,11,13,03,15,6.70
2015,11,13,03,16,3.90
2015,11,13,03,17,8.70
2015,11,13,03,18,5.70
2015,11,13,03,19,3.90
2015,11,13,03,20,5.10
2015,11,13,03,21,6.80
2015,11,13,03,22,2.00
2015,11,13,03,23,7.30
2015,11,13,03,24,5.30
2015,11,13,03,25,2.00
2015,11,13,03,26,3.80
2015,11,13,03,27,8.50
2015,11,13,03,28,5.40
2015,11,13,03,29,2.10
2015,11,13,03,30,4.90
2015,11,13,03,31,4.60
2015,11,13,03,32,3.10
2015,11,13,03,33,4.20
2015,11,13,03,34,6.20
2015,11,13,03,35,9.80
2015,11,13,03,36,11.10
2015,11,13,03,37,8.30
2015,11,13,03,38,6.10
2015,11,13,03,39,1.90
2015,11,13,03,40,7.10
2015,11,13,03,41,5.30
2015,11,13,03,42,6.00
2015,11,13,03,43,7.20
2015,11,13,03,44,10.90
2015,11,13,03,45,6.10
2015,11,13,03,46,7.90
2015,11,13,03,47,6.40
2015,11,13,03,48,4.90
2015,11,13,03,49,7.00
2015,11,13,03,50,4.70
2015,11,13,03,51,11.50
2015,11,13,03,52,6.40
2015,11,13,03,53,9.40
2015,11,13,03,54,6.10
2015,11,13,03,55,5.40
2015,11,13,03,56,4.30
2015,11,13,03,57,6.50
2015,11,13,03,58,5.30
2015,11,13,03,59,4.10
2015,11,13,04,00,5.80
2015,11,13,04,01,7.10
2015,11,13,04,02,9.20
2015,11,13,04,03,9.30
2015,11,13,04,04,6.00
2015,11,13,04,05,6.40
2015,11,13,04,06,9.20
2015,11,13,04,07,9.00
2015,11,13,04,08,7.60
2015,11,13,04,09,7.40
2015,11,13,04,10,5.10
2015,11,13,04,11,6.20
2015,11,13,04,12,7.20
2015,11,13,04,13,3.20
2015,11,13,04,14,6.50
2015,11,13,04,15,5.90
2015,11,13,04,16,4.80
2015,11,13,04,17,3.50
2015,11,13,04,18,7.60
2015,11,13,04,19,7.20
2015,11,13,04,20,7.70
2015,11,13,04,21,7.80
2015,11,13,04,22,8.30
2015,11,13,04,23,8.00
2015,11,13,04,24,7.00
2015,11,13,04,25,7.60
2015,11,13,04,26,5.10
2015,11,13,04,27,5.90
2015,11,13,04,28,9.60
2015,11,13,04,29,6.20
2015,11,13,04,30,4.20
2015,11,13,04,31,5.10
2015,11,13,04,32,5.10
2015,11,13,04,33,5.80
2015,11,13,04,34,5.30
2015,11,13,04,35,4.40
2015,11,13,04,36,6.60
2015,11,13,04,37,6.70
2015,11,13,04,38,5.10
2015,11,13,04,39,5.90
2015,11,13,04,40,5.10
2015,11,13,04,41,7.20
2015,11,13,04,42,5.50
2015,11,13,04,43,7.10
2015,11,13,04,44,5.50
2015,11,13,04,45,5.40
2015,11,13,04,46,6.40
2015,11,13,04,47,9.20
2015,11,13,04,48,4.40
2015,11,13,04,49,3.80
2015,11,13,04,50,5.40
2015,11,13,04,51,8.50
2015,11,13,04,52,6.00
2015,11,13,04,53,5.10
2015,11,13,04,54,7.30
2015,11,13,04,55,5.60
2015,11,13,04,56,3.90
2015,11,13,04,57,4.00
2015,11,13,04,58,4.00
2015,11,13,04,59,3.00
2015,11,13,05,00,8.40
2015,11,13,05,01,7.60
2015,11,13,05,02,8.10
2015,11,13,05,03,4.70
2015,11,13,05,04,10.70
2015,11,13,05,05,7.10
2015,11,13,05,06,4.80
2015,11,13,05,07,7.40
2015,11,13,05,08,11.10
2015,11,13,05,09,6.00
2015,11,13,05,10,2.60
2015,11,13,05,11,3.70
2015,11,13,05,12,6.30
2015,11,13,05,13,10.30
2015,11,13,05,14,9.10
2015,11,13,05,15,5.90
2015,11,13,05,16,6.50
2015,11,13,05,17,4.30
2015,11,13,05,18,6.10
2015,11,13,05,19,6.10
2015,11,13,05,20,6.20
2015,11,13,05,21,6.50
2015,11,13,05,22,7.60
2015,11,13,05,23,8.90
2015,11,13,05,24,8.20
2015,11,13,05,25,7.00
2015,11,13,05,26,9.10
2015,11,13,05,27,6.40
2015,11,13,05,28,8.10
2015,11,13,05,29,4.40
2015,11,13,05,30,5.40
2015,11,13,05,31,6.10
2015,11,13,05,32,5.10
2015,11,13,05,33,2.40
2015,11,13,05,34,4.90
2015,11,13,05,35,6.00
2015,11,13,05,36,5.30
2015,11,13,05,37,1.50
2015,11,13,05,38,0.40
2015,11,13,05,39,0.00
2015,11,13,05,40,0.20
2015,11,13,05,41,4.70
2015,11,13,05,42,13.90
2015,11,13,05,43,8.30
2015,11,13,05,44,3.10
2015,11,13,05,45,2.60
2015,11,13,05,46,8.20
2015,11,13,05,47,5.70
2015,11,13,05,48,2.70
2015,11,13,05,49,1.90
2015,11,13,05,50,7.40
2015,11,13,05,51,5.50
2015,11,13,05,52,4.30
2015,11,13,05,53,2.00
2015,11,13,05,54,2.00
2015,11,13,05,55,1.00
2015,11,13,05,56,4.30
2015,11,13,05,57,2.70
2015,11,13,05,58,2.00
2015,11,13,05,59,2.10
2015,11,13,06,00,2.80
2015,11,13,06,01,5.20
2015,11,13,06,02,6.10
2015,11,13,06,03,6.10
2015,11,13,06,04,5.30
2015,11,13,06,05,3.10
2015,11,13,06,06,4.50
2015,11,13,06,07,0.00
2015,11,13,06,08,2.20
2015,11,13,06,09,4.80
2015,11,13,06,10,3.00
2015,11,13,06,11,4.30
2015,11,13,06,12,1.30
2015,11,13,06,13,1.10
2015,11,13,06,14,3.40
2015,11,13,06,15,6.70
2015,11,13,06,16,4.70
2015,11,13,06,17,7.60
2015,11,13,06,18,4.60
2015,11,13,06,19,5.70
2015,11,13,06,20,3.10
2015,11,13,06,21,3.70
2015,11,13,06,22,0.30
2015,11,13,06,23,4.30
2015,11,13,06,24,2.80
2015,11,13,06,25,4.30
2015,11,13,06,26,5.20
2015,11,13,06,27,4.00
2015,11,13,06,28,6.60
2015,11,13,06,29,6.10
2015,11,13,06,30,4.40
2015,11,13,06,31,7.40
2015,11,13,06,32,5.80
2015,11,13,06,33,2.00
2015,11,13,06,34,6.50
2015,11,13,06,35,6.70
2015,11,13,06,36,3.80
2015,11,13,06,37,1.80
2015,11,13,06,38,0.70
2015,11,13,06,39,0.10
2015,11,13,06,40,3.20
2015,11,13,06,41,3.10
2015,11,13,06,42,6.00
2015,11,13,06,43,3.90
2015,11,13,06,44,2.10
2015,11,13,06,45,1.50
2015,11,13,06,46,1.20
2015,11,13,06,47,6.50
2015,11,13,06,48,2.20
2015,11,13,06,49,2.80
2015,11,13,06,50,4.20
2015,11,13,06,51,6.40
2015,11,13,06,52,3.60
2015,11,13,06,53,9.40
2015,11,13,06,54,4.50
2015,11,13,06,55,7.60
2015,11,13,06,56,1.00
2015,11,13,06,57,4.00
2015,11,13,06,58,3.40
2015,11,13,06,59,3.90
2015,11,13,07,00,2.30
2015,11,13,07,01,3.20
2015,11,13,07,02,6.90
2015,11,13,07,03,6.30
2015,11,13,07,04,2.60
2015,11,13,07,05,3.90
2015,11,13,07,06,3.40
2015,11,13,07,07,4.70
2015,11,13,07,08,1.50
2015,11,13,07,09,6.70
2015,11,13,07,10,8.90
2015,11,13,07,11,7.40
2015,11,13,07,12,6.50
2015,11,13,07,13,2.30
2015,11,13,07,14,0.60
2015,11,13,07,15,5.60
2015,11,13,07,16,6.30
2015,11,13,07,17,7.40
2015,11,13,07,18,5.70
2015,11,13,07,19,2.40
2015,11,13,07,20,0.50
2015,11,13,07,21,2.40
2015,11,13,07,22,4.70
2015,11,13,07,23,5.70
2015,11,13,07,24,13.80
2015,11,13,07,25,9.30
2015,11,13,07,26,5.90
2015,11,13,07,27,4.70
2015,11,13,07,28,6.80
2015,11,13,07,29,4.90
2015,11,13,07,30,3.00
2015,11,13,07,31,0.90
2015,11,13,07,32,2.00
2015,11,13,07,33,2.80
2015,11,13,07,34,10.10
2015,11,13,07,35,6.30
2015,11,13,07,36,6.30
2015,11,13,07,37,4.50
2015,11,13,07,38,1.40
2015,11,13,07,39,2.70
2015,11,13,07,40,0.80
2015,11,13,07,41,6.00
2015,11,13,07,42,4.90
2015,11,13,07,43,6.40
2015,11,13,07,44,4.80
2015,11,13,07,45,2.60
2015,11,13,07,46,1.50
2015,11,13,07,47,4.50
2015,11,13,07,48,3.30
2015,11,13,07,49,1.70
2015,11,13,07,50,3.50
2015,11,13,07,51,2.00
2015,11,13,07,52,2.80
2015,11,13,07,53,4.20
2015,11,13,07,54,5.80
2015,11,13,07,55,3.60
2015,11,13,07,56,2.20
2015,11,13,07,57,2.80
2015,11,13,07,58,8.10
2015,11,13,07,59,3.10
2015,11,13,08,00,3.50
2015,11,13,08,01,4.50
2015,11,13,08,02,12.00
2015,11,13,08,03,3.20
2015,11,13,08,04,2.00
2015,11,13,08,05,2.30
2015,11,13,08,06,6.40
2015,11,13,08,07,5.80
2015,11,13,08,08,3.80
2015,11,13,08,09,2.10
2015,11,13,08,10,3.50
2015,11,13,08,11,0.20
2015,11,13,08,12,1.40
2015,11,13,08,13,4.30
2015,11,13,08,14,0.90
2015,11,13,08,15,2.80
2015,11,13,08,16,0.40
2015,11,13,08,17,0.20
2015,11,13,08,18,0.40
2015,11,13,08,19,0.20
2015,11,13,08,20,1.30
2015,11,13,08,21,0.90
2015,11,13,08,22,5.50
2015,11,13,08,23,1.00
2015,11,13,08,24,1.00
2015,11,13,08,25,1.40
2015,11,13,08,26,1.00
2015,11,13,08,27,0.00
2015,11,13,08,28,1.10
2015,11,13,08,29,0.90
2015,11,13,08,30,4.70
2015,11,13,08,31,5.10
2015,11,13,08,32,4.00
2015,11,13,08,33,2.30
2015,11,13,08,34,1.30
2015,11,13,08,35,2.20
2015,11,13,08,36,0.60
2015,11,13,08,37,4.10
2015,11,13,08,38,5.00
2015,11,13,08,39,0.20
2015,11,13,08,40,0.00
2015,11,13,08,41,0.00
2015,11,13,08,42,1.10
2015,11,13,08,43,0.00
2015,11,13,08,44,3.10
2015,11,13,08,45,1.40
2015,11,13,08,46,4.70
2015,11,13,08,47,1.20
2015,11,13,08,48,0.60
2015,11,13,08,49,3.10
2015,11,13,08,50,1.90
2015,11,13,08,51,0.10
2015,11,13,08,52,2.60
2015,11,13,08,53,7.30
2015,11,13,08,54,9.40
2015,11,13,08,55,5.20
2015,11,13,08,56,0.30
2015,11,13,08,57,0.10
2015,11,13,08,58,0.60
2015,11,13,08,59,0.10
2015,11,13,09,00,0.00
2015,11,13,09,01,0.10
2015,11,13,09,02,0.00
2015,11,13,09,03,0.20
2015,11,13,09,04,0.00
2015,11,13,09,05,0.60
2015,11,13,09,06,0.10
2015,11,13,09,07,1.60
2015,11,13,09,08,0.50
2015,11,13,09,09,1.00
2015,11,13,09,10,4.80
2015,11,13,09,11,0.50
2015,11,13,09,12,0.00
2015,11,13,09,13,0.00
2015,11,13,09,14,1.30
2015,11,13,09,15,3.40
2015,11,13,09,16,7.40
2015,11,13,09,17,7.20
2015,11,13,09,18,2.90
2015,11,13,09,19,8.40
2015,11,13,09,20,1.00
2015,11,13,09,21,3.50
2015,11,13,09,22,1.90
2015,11,13,09,23,1.90
2015,11,13,09,24,1.20
2015,11,13,09,25,0.70
2015,11,13,09,26,4.00
2015,11,13,09,27,2.10
2015,11,13,09,28,0.90
2015,11,13,09,29,0.70
2015,11,13,09,30,1.80
2015,11,13,09,31,2.40
2015,11,13,09,32,3.40
2015,11,13,09,33,2.20
2015,11,13,09,34,4.50
2015,11,13,09,35,4.30
2015,11,13,09,36,0.30
2015,11,13,09,37,0.30
2015,11,13,09,38,0.10
2015,11,13,09,39,3.80
2015,11,13,09,40,0.10
2015,11,13,09,41,0.00
2015,11,13,09,42,4.10
2015,11,13,09,43,0.80
2015,11,13,09,44,0.40
2015,11,13,09,45,0.60
2015,11,13,09,46,2.00
2015,11,13,09,47,0.50
2015,11,13,09,48,1.90
2015,11,13,09,49,1.30
2015,11,13,09,50,0.00
2015,11,13,09,51,0.40
2015,11,13,09,52,3.10
2015,11,13,09,53,2.70
2015,11,13,09,54,2.10
2015,11,13,09,55,1.80
2015,11,13,09,56,2.10
2015,11,13,09,57,4.90
2015,11,13,09,58,2.70
2015,11,13,09,59,1.30
2015,11,13,10,00,0.00
2015,11,13,10,01,1.80
2015,11,13,10,02,2.30
2015,11,13,10,03,0.00
2015,11,13,10,04,0.10
2015,11,13,10,05,1.40
2015,11,13,10,06,5.40
2015,11,13,10,07,6.00
2015,11,13,10,08,3.70
2015,11,13,10,09,2.00
2015,11,13,10,10,0.00
2015,11,13,10,11,0.30
2015,11,13,10,12,0.10
2015,11,13,10,13,0.00
2015,11,13,10,14,0.00
2015,11,13,10,15,0.00
2015,11,13,10,16,1.00
2015,11,13,10,17,2.50
2015,11,13,10,18,2.20
2015,11,13,10,19,0.70
2015,11,13,10,20,1.40
2015,11,13,10,21,0.20
2015,11,13,10,22,5.10
2015,11,13,10,23,0.80
2015,11,13,10,24,0.00
2015,11,13,10,25,0.00
2015,11,13,10,26,0.20
2015,11,13,10,27,4.40
2015,11,13,10,28,4.80
2015,11,13,10,29,1.90
2015,11,13,10,30,2.80
2015,11,13,10,31,1.00
2015,11,13,10,32,0.20
2015,11,13,10,33,0.60
2015,11,13,10,34,2.10
2015,11,13,10,35,1.40
2015,11,13,10,36,1.60
2015,11,13,10,37,1.60
2015,11,13,10,38,8.10
2015,11,13,10,39,3.10
2015,11,13,10,40,2.70
2015,11,13,10,41,2.80
2015,11,13,10,42,5.20
2015,11,13,10,43,2.50
2015,11,13,10,44,1.20
2015,11,13,10,45,9.10
2015,11,13,10,46,4.60
2015,11,13,10,47,1.80
2015,11,13,10,48,2.30
2015,11,13,10,49,5.10
2015,11,13,10,50,1.60
2015,11,13,10,51,1.50
2015,11,13,10,52,1.10
2015,11,13,10,53,2.80
2015,11,13,10,54,2.70
2015,11,13,10,55,0.00
2015,11,13,10,56,0.00
2015,11,13,10,57,1.60
2015,11,13,10,58,0.10
2015,11,13,10,59,0.00
2015,11,13,11,00,0.10
2015,11,13,11,01,0.70
2015,11,13,11,02,1.70
2015,11,13,11,03,3.60
2015,11,13,11,04,1.40
2015,11,13,11,05,4.20
2015,11,13,11,06,4.50
2015,11,13,11,07,0.20
2015,11,13,11,08,2.80
2015,11,13,11,09,2.40
2015,11,13,11,10,6.30
2015,11,13,11,11,2.70
2015,11,13,11,12,5.90
2015,11,13,11,13,3.80
2015,11,13,11,14,4.30
2015,11,13,11,15,6.70
2015,11,13,11,16,8.10
2015,11,13,11,17,10.10
2015,11,13,11,18,7.50
2015,11,13,11,19,4.80
2015,11,13,11,20,1.50
2015,11,13,11,21,2.20
2015,11,13,11,22,0.60
2015,11,13,11,23,1.70
2015,11,13,11,24,1.30
2015,11,13,11,25,7.60
2015,11,13,11,26,12.80
2015,11,13,11,27,8.40
2015,11,13,11,28,4.10
2015,11,13,11,29,5.20
2015,11,13,11,30,9.40
2015,11,13,11,31,3.90
2015,11,13,11,32,0.00
2015,11,13,11,33,0.50
2015,11,13,11,34,2.00
2015,11,13,11,35,0.40
2015,11,13,11,36,1.00
2015,11,13,11,37,3.00
2015,11,13,11,38,4.50
2015,11,13,11,39,3.90
2015,11,13,11,40,10.10
2015,11,13,11,41,2.90
2015,11,13,11,42,6.40
2015,11,13,11,43,7.90
2015,11,13,11,44,5.10
2015,11,13,11,45,6.20
2015,11,13,11,46,4.60
2015,11,13,11,47,5.50
2015,11,13,11,48,5.50
2015,11,13,11,49,4.20
2015,11,13,11,50,1.90
2015,11,13,11,51,4.80
2015,11,13,11,52,1.80
2015,11,13,11,53,1.80
2015,11,13,11,54,1.00
2015,11,13,11,55,4.20
2015,11,13,11,56,5.40
2015,11,13,11,57,4.70
2015,11,13,11,58,4.90
2015,11,13,11,59,4.10
2015,11,13,12,00,6.90
2015,11,13,12,01,4.90
2015,11,13,12,02,6.50
2015,11,13,12,03,3.50
2015,11,13,12,04,4.00
2015,11,13,12,05,4.60
2015,11,13,12,06,4.60
2015,11,13,12,07,3.90
2015,11,13,12,08,3.00
2015,11,13,12,09,4.30
2015,11,13,12,10,6.10
2015,11,13,12,11,4.30
2015,11,13,12,12,1.90
2015,11,13,12,13,2.70
2015,11,13,12,14,1.40
2015,11,13,12,15,2.00
2015,11,13,12,16,2.00
2015,11,13,12,17,3.60
2015,11,13,12,18,4.40
2015,11,13,12,19,4.20
2015,11,13,12,20,0.70
2015,11,13,12,21,2.80
2015,11,13,12,22,3.60
2015,11,13,12,23,1.80
2015,11,13,12,24,3.40
2015,11,13,12,25,1.60
2015,11,13,12,26,0.70
2015,11,13,12,27,3.10
2015,11,13,12,28,4.40
2015,11,13,12,29,0.20
2015,11,13,12,30,2.20
2015,11,13,12,31,5.60
2015,11,13,12,32,3.00
2015,11,13,12,33,3.80
2015,11,13,12,34,1.30
2015,11,13,12,35,1.60
2015,11,13,12,36,4.80
2015,11,13,12,37,3.90
2015,11,13,12,38,6.10
2015,11,13,12,39,3.90
2015,11,13,12,40,4.10
2015,11,13,12,41,5.50
2015,11,13,12,42,6.40
2015,11,13,12,43,4.40
2015,11,13,12,44,0.10
2015,11,13,12,45,1.60
2015,11,13,12,46,1.80
2015,11,13,12,47,1.10
2015,11,13,12,48,4.30
2015,11,13,12,49,0.80
2015,11,13,12,50,2.70
2015,11,13,12,51,2.90
2015,11,13,12,52,5.30
2015,11,13,12,53,7.20
2015,11,13,12,54,7.40
2015,11,13,12,55,0.20
2015,11,13,12,56,4.40
2015,11,13,12,57,5.80
2015,11,13,12,58,12.60
2015,11,13,12,59,5.40
2015,11,13,13,00,4.00
2015,11,13,13,01,3.90
2015,11,13,13,02,6.40
2015,11,13,13,03,5.20
2015,11,13,13,04,4.40
2015,11,13,13,05,7.30
2015,11,13,13,06,1.00
2015,11,13,13,07,7.60
2015,11,13,13,08,7.10
2015,11,13,13,09,4.70
2015,11,13,13,10,8.40
2015,11,13,13,11,9.60
2015,11,13,13,12,5.20
2015,11,13,13,13,4.10
2015,11,13,13,14,6.00
2015,11,13,13,15,4.10
2015,11,13,13,16,5.60
2015,11,13,13,17,5.60
2015,11,13,13,18,6.20
2015,11,13,13,19,6.50
2015,11,13,13,20,6.40
2015,11,13,13,21,2.30
2015,11,13,13,22,5.80
2015,11,13,13,23,8.80
2015,11,13,13,24,5.10
2015,11,13,13,25,2.10
2015,11,13,13,26,3.80
2015,11,13,13,27,10.50
2015,11,13,13,28,5.50
2015,11,13,13,29,11.30
2015,11,13,13,30,9.00
2015,11,13,13,31,7.60
2015,11,13,13,32,5.00
2015,11,13,13,33,6.10
2015,11,13,13,34,3.50
2015,11,13,13,35,1.20
2015,11,13,13,36,0.10
2015,11,13,13,37,0.30
2015,11,13,13,38,0.00
2015,11,13,13,39,1.40
2015,11,13,13,40,0.10
2015,11,13,13,41,0.00
2015,11,13,13,42,0.10
2015,11,13,13,43,3.00
2015,11,13,13,44,4.20
2015,11,13,13,45,0.40
2015,11,13,13,46,0.20
2015,11,13,13,47,2.50
2015,11,13,13,48,2.20
2015,11,13,13,49,1.00
2015,11,13,13,50,0.00
2015,11,13,13,51,0.50
2015,11,13,13,52,0.00
2015,11,13,13,53,0.00
2015,11,13,13,54,0.20
2015,11,13,13,55,0.10
2015,11,13,13,56,1.10
2015,11,13,13,57,0.30
2015,11,13,13,58,1.00
2015,11,13,13,59,2.30
2015,11,13,14,00,3.30
2015,11,13,14,01,2.90
2015,11,13,14,02,1.80
2015,11,13,14,03,2.20
2015,11,13,14,04,1.50
2015,11,13,14,05,2.60
2015,11,13,14,06,0.90
2015,11,13,14,07,0.00
2015,11,13,14,08,0.00
2015,11,13,14,09,1.00
2015,11,13,14,10,3.50
2015,11,13,14,11,3.90
2015,11,13,14,12,1.30
2015,11,13,14,13,1.30
2015,11,13,14,14,4.80
2015,11,13,14,15,1.20
2015,11,13,14,16,0.00
2015,11,13,14,17,0.90
2015,11,13,14,18,0.20
2015,11,13,14,19,0.20
2015,11,13,14,20,0.10
2015,11,13,14,21,1.40
2015,11,13,14,22,0.20
2015,11,13,14,23,0.00
2015,11,13,14,24,0.00
2015,11,13,14,25,0.00
2015,11,13,14,26,2.90
2015,11,13,14,27,1.50
2015,11,13,14,28,0.00
2015,11,13,14,29,0.20
2015,11,13,14,30,1.20
2015,11,13,14,31,0.00
2015,11,13,14,32,0.00
2015,11,13,14,33,0.00
2015,11,13,14,34,0.00
2015,11,13,14,35,0.50
2015,11,13,14,36,0.90
2015,11,13,14,37,0.10
2015,11,13,14,38,0.00
2015,11,13,14,39,0.00
2015,11,13,14,40,0.00
2015,11,13,14,41,0.00
2015,11,13,14,42,0.00
2015,11,13,14,43,0.00
2015,11,13,14,44,0.00
2015,11,13,14,45,0.00
2015,11,13,14,46,1.80
2015,11,13,14,47,1.00
2015,11,13,14,48,3.30
2015,11,13,14,49,3.50
2015,11,13,14,50,2.10
2015,11,13,14,51,0.30
2015,11,13,14,52,1.10
2015,11,13,14,53,2.90
2015,11,13,14,54,0.30
2015,11,13,14,55,0.10
2015,11,13,14,56,1.20
2015,11,13,14,57,0.60
2015,11,13,14,58,2.70
2015,11,13,14,59,1.00
2015,11,13,15,00,0.60
2015,11,13,15,01,0.30
2015,11,13,15,02,1.70
2015,11,13,15,03,0.20
2015,11,13,15,04,0.40
2015,11,13,15,05,0.00
2015,11,13,15,06,0.30
2015,11,13,15,07,2.90
2015,11,13,15,08,2.10
2015,11,13,15,09,2.80
2015,11,13,15,10,0.10
2015,11,13,15,11,3.10
2015,11,13,15,12,1.00
2015,11,13,15,13,0.10
2015,11,13,15,14,1.10
2015,11,13,15,15,2.30
2015,11,13,15,16,1.40
2015,11,13,15,17,2.30
2015,11,13,15,18,3.40
2015,11,13,15,19,0.10
2015,11,13,15,20,3.10
2015,11,13,15,21,3.20
2015,11,13,15,22,0.60
2015,11,13,15,23,0.50
2015,11,13,15,24,0.00
2015,11,13,15,25,1.90
2015,11,13,15,26,1.00
2015,11,13,15,27,0.60
2015,11,13,15,28,0.40
2015,11,13,15,29,0.30
2015,11,13,15,30,0.00
2015,11,13,15,31,0.30
2015,11,13,15,32,1.40
2015,11,13,15,33,1.00
2015,11,13,15,34,0.00
2015,11,13,15,35,0.10
2015,11,13,15,36,2.50
2015,11,13,15,37,1.70
2015,11,13,15,38,3.00
2015,11,13,15,39,4.10
2015,11,13,15,40,3.00
2015,11,13,15,41,3.20
2015,11,13,15,42,1.00
2015,11,13,15,43,2.90
2015,11,13,15,44,6.00
2015,11,13,15,45,1.60
2015,11,13,15,46,0.00
2015,11,13,15,47,0.00
2015,11,13,15,48,1.60
2015,11,13,15,49,1.10
2015,11,13,15,50,2.30
2015,11,13,15,51,4.00
2015,11,13,15,52,3.70
2015,11,13,15,53,4.90
2015,11,13,15,54,3.80
2015,11,13,15,55,1.50
2015,11,13,15,56,0.90
2015,11,13,15,57,3.60
2015,11,13,15,58,0.20
2015,11,13,15,59,0.20
2015,11,13,16,00,0.00
2015,11,13,16,01,0.30
2015,11,13,16,02,1.30
2015,11,13,16,03,0.70
2015,11,13,16,04,1.50
2015,11,13,16,05,0.60
2015,11,13,16,06,2.10
2015,11,13,16,07,0.80
2015,11,13,16,08,3.30
2015,11,13,16,09,0.60
2015,11,13,16,10,5.50
2015,11,13,16,11,0.70
2015,11,13,16,12,1.10
2015,11,13,16,13,0.10
2015,11,13,16,14,3.10
2015,11,13,16,15,0.90
2015,11,13,16,16,0.20
2015,11,13,16,17,0.50
2015,11,13,16,18,3.70
2015,11,13,16,19,3.00
2015,11,13,16,20,1.80
2015,11,13,16,21,3.30
2015,11,13,16,22,2.60
2015,11,13,16,23,0.80
2015,11,13,16,24,4.30
2015,11,13,16,25,5.10
2015,11,13,16,26,2.20
2015,11,13,16,27,2.50
2015,11,13,16,28,2.70
2015,11,13,16,29,3.40
2015,11,13,16,30,3.50
2015,11,13,16,31,6.40
2015,11,13,16,32,1.00
2015,11,13,16,33,3.40
2015,11,13,16,34,3.80
2015,11,13,16,35,2.80
2015,11,13,16,36,3.90
2015,11,13,16,37,0.70
2015,11,13,16,38,0.20
2015,11,13,16,39,0.30
2015,11,13,16,40,2.90
2015,11,13,16,41,0.40
2015,11,13,16,42,1.40
2015,11,13,16,43,4.00
2015,11,13,16,44,0.60
2015,11,13,16,45,0.00
2015,11,13,16,46,0.00
2015,11,13,16,47,2.40
2015,11,13,16,48,4.20
2015,11,13,16,49,0.60
2015,11,13,16,50,0.50
2015,11,13,16,51,3.50
2015,11,13,16,52,3.80
2015,11,13,16,53,1.40
2015,11,13,16,54,1.60
2015,11,13,16,55,1.50
2015,11,13,16,56,2.00
2015,11,13,16,57,0.60
2015,11,13,16,58,0.50
2015,11,13,16,59,0.00
2015,11,13,17,00,0.00
2015,11,13,17,01,2.10
2015,11,13,17,02,0.60
2015,11,13,17,03,0.20
2015,11,13,17,04,0.70
2015,11,13,17,05,1.90
2015,11,13,17,06,5.70
2015,11,13,17,07,2.30
2015,11,13,17,08,4.10
2015,11,13,17,09,1.00
2015,11,13,17,10,3.70
2015,11,13,17,11,6.20
2015,11,13,17,12,3.30
2015,11,13,17,13,0.60
2015,11,13,17,14,1.30
2015,11,13,17,15,4.10
2015,11,13,17,16,0.40
2015,11,13,17,17,0.00
2015,11,13,17,18,0.00
2015,11,13,17,19,2.00
2015,11,13,17,20,5.90
2015,11,13,17,21,5.30
2015,11,13,17,22,4.80
2015,11,13,17,23,3.40
2015,11,13,17,24,0.80
2015,11,13,17,25,0.70
2015,11,13,17,26,3.20
2015,11,13,17,27,2.60
2015,11,13,17,28,3.50
2015,11,13,17,29,4.40
2015,11,13,17,30,3.30
2015,11,13,17,31,0.70
2015,11,13,17,32,0.00
2015,11,13,17,33,0.00
2015,11,13,17,34,0.00
2015,11,13,17,35,0.00
2015,11,13,17,36,0.00
2015,11,13,17,37,0.70
2015,11,13,17,38,0.00
2015,11,13,17,39,0.00
2015,11,13,17,40,0.20
2015,11,13,17,41,3.20
2015,11,13,17,42,1.00
2015,11,13,17,43,1.40
2015,11,13,17,44,0.10
2015,11,13,17,45,0.10
2015,11,13,17,46,0.00
2015,11,13,17,47,0.10
2015,11,13,17,48,0.00
2015,11,13,17,49,1.50
2015,11,13,17,50,1.50
2015,11,13,17,51,0.10
2015,11,13,17,52,4.20
2015,11,13,17,53,4.20
2015,11,13,17,54,3.70
2015,11,13,17,55,3.90
2015,11,13,17,56,3.80
2015,11,13,17,57,2.10
2015,11,13,17,58,7.60
2015,11,13,17,59,4.80
2015,11,13,18,00,3.00
2015,11,13,18,01,3.60
2015,11,13,18,02,1.90
2015,11,13,18,03,3.10
2015,11,13,18,04,3.10
2015,11,13,18,05,5.50